Regional Weather Roundup
Issued by NWS Little Rock, AR

Home | Current Version | Previous Version | Text Only | Print | Product List | Glossary On
Versions: 1 2 3 4 5 6 7 8 9 10 11 12 13 14 15 16 17 18 19 20 21 22 23 24 25 26 27 28 29 30 31 32 33 34 35 36 37 38 39 40 41 42 43 44 45 46 47 48 49 50
000
ASUS44 KLZK 290605
RWRLZK

WEATHER ROUNDUP FOR ARKANSAS
NATIONAL WEATHER SERVICE LITTLE ROCK AR
100 AM CDT FRI APR 29 2016

NOTE: "FAIR" INDICATES FEW OR NO CLOUDS BELOW 12,000 FEET WITH NO
SIGNIFICANT WEATHER AND/OR OBSTRUCTIONS TO VISIBILITY.

ARZ001-003-010-029-290700-
NORTHWEST ARKANSAS

CITY           SKY/WX    TMP DP  RH WIND       PRES   REMARKS
FAYETTEVILLE   CLOUDY    59  51  75 CALM      29.96S
6HR MIN TEMP:  55; 6HR MAX TEMP:  73;

FORT SMITH     CLOUDY    64  52  64 NE6       29.91S
6HR MIN TEMP:  64; 6HR MAX TEMP:  77;

HARRISON       CLOUDY    57  47  69 CALM      29.99S
6HR MIN TEMP:  55; 6HR MAX TEMP:  74;

BENTONVILLE    CLOUDY    63  45  51 E5        29.97S
6HR MIN TEMP:  63; 6HR MAX TEMP:  72;

ROGERS         MOCLDY    64  45  49 E8        29.97S
6HR MIN TEMP:  62; 6HR MAX TEMP:  72;

SILOAM SPGS    CLOUDY    63  43  48 CALM      29.97S
6HR MIN TEMP:  63; 6HR MAX TEMP:  72;

HIGHFILL       CLOUDY    63  48  58 E6        29.96R
6HR MIN TEMP:  62; 6HR MAX TEMP:  73;

$$

ARZ004-005-016-290700-
NORTH CENTRAL ARKANSAS

CITY           SKY/WX    TMP DP  RH WIND       PRES   REMARKS
BATESVILLE     CLOUDY    57  52  82 CALM      29.97S
6HR MIN TEMP:  57; 6HR MAX TEMP:  81;

FLIPPIN        CLOUDY   N/A N/A N/A CALM      29.96R
MTN HOME       CLOUDY    61  45  55 E5        29.97S
6HR MIN TEMP:  60; 6HR MAX TEMP:  74;

$$

ARZ040-041-290700-
WEST CENTRAL ARKANSAS

CITY           SKY/WX    TMP DP  RH WIND       PRES   REMARKS
MENA           MOCLDY    61  57  88 CALM      29.94R
MOUNT IDA      CLOUDY    59  55  87 CALM      29.89F
6HR MIN TEMP:  59; 6HR MAX TEMP:  79;

$$

ARZ009-017-025-026-028-290700-
NORTHEAST ARKANSAS

CITY           SKY/WX    TMP DP  RH WIND       PRES   REMARKS
CORNING          N/A     63  55  77 N5        29.98S
JONESBORO      CLOUDY    59  53  80 CALM      29.96R
6HR MIN TEMP:  59; 6HR MAX TEMP:  79;

NEWPORT        CLOUDY    65  54  67 N5        29.96F
6HR MIN TEMP:  63; 6HR MAX TEMP:  81; 6HR PCP: TRACE;

WALNUT RIDGE   CLOUDY    63  54  72 N6        29.96S
6HR MIN TEMP:  61; 6HR MAX TEMP:  79;

BLYTHEVILLE    CLEAR     61  51  70 NE3       29.96F
6HR MIN TEMP:  61; 6HR MAX TEMP:  81;

$$

ARZ022-023-033-042-044-290700-
CENTRAL ARKANSAS

CITY           SKY/WX    TMP DP  RH WIND       PRES   REMARKS
LITTLE ROCK    CLOUDY    65  55  70 NE3       29.94R
6HR MIN TEMP:  65; 6HR MAX TEMP:  80;

SEARCY         CLOUDY    61  57  88 CALM      29.96S
6HR MIN TEMP:  59; 6HR MAX TEMP:  79;

HOT SPRINGS    CLOUDY    67  50  54 E5        29.92F
6HR MIN TEMP:  66; 6HR MAX TEMP:  81;

RUSSELLVILLE   CLOUDY    62  52  69 CALM      29.93S
6HR MIN TEMP:  61; 6HR MAX TEMP:  79;

$$

ARZ036-290700-
EAST ARKANSAS

CITY           SKY/WX    TMP DP  RH WIND       PRES   REMARKS
WEST MEMPHIS   CLOUDY    63  53  70 CALM      29.94F
6HR MIN TEMP:  63; 6HR MAX TEMP:  75;

$$

ARZ050-053-066-070-073-290700-
SOUTHWEST ARKANSAS

CITY           SKY/WX    TMP DP  RH WIND       PRES   REMARKS
ARKADELPHIA    FAIR      61  61 100 CALM      29.91F
6HR MIN TEMP:  61; 6HR MAX TEMP:  81; 6HR PCP: TRACE;

CAMDEN         CLEAR     61  55  82 CALM      29.90S
TEXARKANA      MOCLDY    67  58  72 E3        29.88S
6HR MIN TEMP:  66; 6HR MAX TEMP:  80;

EL DORADO      CLEAR     63  61  93 CALM      29.91R
6HR MIN TEMP:  63; 6HR MAX TEMP:  81;

DE QUEEN       CLOUDY    67  57  70 E7        29.86F
6HR MIN TEMP:  62; 6HR MAX TEMP:  78;

$$

ARZ056-057-069-290700-
SOUTHEAST ARKANSAS

CITY           SKY/WX    TMP DP  RH WIND       PRES   REMARKS
PINE BLUFF     CLOUDY    67  55  65 CALM      29.92S
6HR MIN TEMP:  65; 6HR MAX TEMP:  81;

STUTTGART      CLOUDY    66  54  63 MISG      29.94S
6HR MIN TEMP:  66; 6HR MAX TEMP:  79;

MONTICELLO     CLEAR     64  59  83 CALM      29.91S
6HR MIN TEMP:  63; 6HR MAX TEMP:  84;


$$





USA.gov is the U.S. government's official web portal to all federal, state and local government web resources and services.